Powrót do katalogu

KUIPER-00289

AktywnyŁącznośćLEO
NORAD 68591·PAYLOAD·🇺🇸 United States

Wystrzelony Apr 4, 2026 z Cape Canaveral Space Force Station

Loading…

Następne Przeloty (najbliższe 24 godziny)

TLE

ŚwieżeSource: CelesTrak SupGP

Epoka: Sep 14, 2026, 23:00 UTC

1 68591C 26072U   26257.95879630  .00003135  00000+0  41041-3 0  2576
2 68591  51.8971 141.1775 0001106  93.8997 275.8618 14.79927069    13

Śledź KUIPER-00289 w czasie rzeczywistym z AllMySat

Download on the App Store